Clermont County, Batavia, OH

12:37 PM EST on December 05, 2019 (GMT -0500)
Clermont County, Batavia

Weather History for KI69 - September, 2019

Change the Weather History Date:

Sunday, September 15, 2019

  Actual Average (WUND) Record (WUND)
Temperature  
Mean Temperature 70 °F -  
Max Temperature 85 °F - - (-1)
Min Temperature 56 °F - - (-1)
Cooling Degree Days 6    
Growing Degree Days 20 (Base 50)    
Moisture  
Dew Point 58 °F    
Average Humidity 69    
Maximum Humidity 98    
Minimum Humidity 32    
Precipitation  
Precipitation 0.00 in - - ()
Sea Level Pressure  
Sea Level Pressure 30.18 in    
Wind  
Wind Speed 1 mph (South)    
Max Wind Speed 8 mph    
Max Gust Speed -    
Visibility 10 miles    
Events      
Averages and records for this station are not official NWS values.
T = Trace of Precipitation, MM = Missing Value Source: NWS Daily Summary

Daily Weather History Graph

Daily Weather History Graph

Search for Another Location

Airport or City:

Astronomy

Sep. 15, 2019 Rise Set
Actual Time 7:17 AM EDT 7:45 PM EDT
Civil Twilight 6:51 AM EDT 8:12 PM EDT
Nautical Twilight 6:19 AM EDT 8:43 PM EDT
Astronomical Twilight 5:47 AM EDT 9:16 PM EDT
Moon 8:53 PM EDT (9/15) 8:27 AM EDT (9/15)
Length of Visible Light 13h 21m
Length of Day
12h 27m
Full, 98% of the Moon is Illuminated
Sep 15
Full
Sep 21
Last Quarter
Sep 28
New
Oct 5
First Quarter
Oct 13
Full

Hourly Weather History & Observations

Time (EDT) Temp. Heat Index Dew Point Humidity Pressure Visibility Wind Dir Wind Speed Gust Speed Precip Events Conditions
12:15 AM 61.9 °F - 57.7 °F 86% 30.25 in 10.0 mi Calm Calm - N/A   Clear
12:35 AM 61.7 °F - 56.8 °F 84% 30.24 in 10.0 mi Calm Calm - N/A   Clear
1:17 AM 61.0 °F - 57.6 °F 88% 30.25 in 10.0 mi Calm Calm - N/A   Clear
1:35 AM 60.4 °F - 58.1 °F 92% 30.25 in 10.0 mi Calm Calm - N/A   Clear
1:55 AM 59.9 °F - 58.1 °F 94% 30.25 in 10.0 mi Calm Calm - N/A   Clear
2:15 AM 60.1 °F - 57.6 °F 91% 30.25 in 10.0 mi Calm Calm - N/A   Clear
2:38 AM 60.8 °F - 57.6 °F 89% 30.24 in 10.0 mi Calm Calm - N/A   Clear
2:57 AM 59.4 °F - 57.6 °F 94% 30.24 in 10.0 mi Calm Calm - N/A   Clear
3:15 AM 58.8 °F - 57.6 °F 96% 30.23 in 10.0 mi Calm Calm - N/A   Clear
3:35 AM 58.5 °F - 57.2 °F 96% 30.23 in 10.0 mi Calm Calm - N/A   Clear
3:55 AM 58.6 °F - 57.9 °F 97% 30.22 in 10.0 mi Calm Calm - N/A   Clear
4:18 AM 57.9 °F - 56.3 °F 94% 30.23 in 10.0 mi Calm Calm - N/A   Clear
4:37 AM 57.7 °F - 57.0 °F 97% 30.22 in 10.0 mi Calm Calm - N/A   Clear
4:55 AM 57.6 °F - 57.0 °F 98% 30.22 in 10.0 mi Calm Calm - N/A   Clear
5:15 AM 57.4 °F - 56.8 °F 98% 30.21 in 10.0 mi Calm Calm - N/A   Clear
5:35 AM 57.4 °F - 56.3 °F 96% 30.21 in 10.0 mi Calm Calm - N/A   Clear
5:58 AM 57.2 °F - 56.1 °F 96% 30.21 in 10.0 mi Calm Calm - N/A   Clear
6:16 AM 57.0 °F - 55.4 °F 94% 30.21 in 10.0 mi Calm Calm - N/A   Clear
6:35 AM 57.6 °F - 55.2 °F 92% 30.22 in 10.0 mi Calm Calm - N/A   Clear
6:55 AM 57.2 °F - 55.2 °F 93% 30.22 in 10.0 mi Calm Calm - N/A   Clear
7:15 AM 56.8 °F - 55.4 °F 95% 30.22 in 10.0 mi Calm Calm - N/A   Clear
7:38 AM 56.3 °F - 55.4 °F 97% 30.22 in 10.0 mi Calm Calm - N/A   Clear
7:56 AM 56.7 °F - 55.2 °F 95% 30.22 in 10.0 mi Calm Calm - N/A   Clear
8:15 AM 57.9 °F - 56.7 °F 96% 30.23 in 10.0 mi Calm Calm - N/A   Clear
8:35 AM 60.4 °F - 58.1 °F 92% 30.23 in 10.0 mi Calm Calm - N/A   Clear
8:55 AM 62.8 °F - 58.6 °F 86% 30.24 in 10.0 mi Calm Calm - N/A   Clear
9:18 AM 65.1 °F - 59.2 °F 81% 30.24 in 10.0 mi Calm Calm - N/A   Clear
9:36 AM 67.1 °F - 59.7 °F 77% 30.23 in 10.0 mi Calm Calm - N/A   Clear
9:55 AM 68.9 °F - 58.3 °F 69% 30.24 in 10.0 mi SSE 3.5 mph - N/A   Clear
10:16 AM 72.0 °F - 58.1 °F 62% 30.23 in 10.0 mi South 4.6 mph - N/A   Clear
10:35 AM 73.9 °F - 57.2 °F 56% 30.23 in 10.0 mi South 5.8 mph - N/A   Clear
10:58 AM 75.4 °F - 55.6 °F 50% 30.23 in 10.0 mi SSE 8.1 mph - N/A   Clear
11:16 AM 75.4 °F - 55.6 °F 50% 30.23 in 10.0 mi South 6.9 mph - N/A   Clear
11:35 AM 77.4 °F - 55.8 °F 47% 30.23 in 10.0 mi ESE 8.1 mph - N/A   Clear
11:55 AM 77.9 °F - 56.3 °F 47% 30.22 in 10.0 mi Calm Calm - N/A   Clear
12:56 PM 79.2 °F - 57.4 °F 47% 30.22 in 10.0 mi SSE 5.8 mph - N/A   Clear
1:15 PM 80.1 °F 80.6 °F 58.3 °F 47% 30.21 in 10.0 mi SSW 3.5 mph - N/A   Clear
1:35 PM 81.5 °F 81.5 °F 57.9 °F 44% 30.21 in 10.0 mi SSW 6.9 mph - N/A   Clear
2:00 PM 82.8 °F 82.2 °F 56.7 °F 41% 30.20 in 10.0 mi SW 8.1 mph - N/A   Clear
2:18 PM 82.8 °F 82.1 °F 56.1 °F 40% 30.19 in 10.0 mi SSW 5.8 mph - N/A   Clear
2:36 PM 83.3 °F 82.5 °F 56.1 °F 39% 30.18 in 10.0 mi SSE 5.8 mph - N/A   Clear
2:55 PM 84.0 °F 83.3 °F 57.6 °F 40% 30.17 in 10.0 mi SW 3.5 mph - N/A   Clear
3:15 PM 84.9 °F 84.1 °F 57.6 °F 39% 30.16 in 10.0 mi ENE 3.5 mph - N/A   Clear
3:39 PM 84.6 °F 83.4 °F 55.4 °F 37% 30.14 in 10.0 mi Calm Calm - N/A   Clear
3:58 PM 85.1 °F 83.6 °F 54.9 °F 35% 30.14 in 10.0 mi WSW 5.8 mph - N/A   Clear
4:16 PM 85.3 °F 83.8 °F 54.7 °F 35% 30.13 in 10.0 mi Calm Calm - N/A   Clear
4:35 PM 85.8 °F - 52.7 °F 32% 30.11 in 10.0 mi WSW 5.8 mph - N/A   Clear
4:55 PM 83.7 °F 82.4 °F 53.8 °F 36% 30.12 in 10.0 mi West 4.6 mph - N/A   Clear
5:19 PM 85.3 °F - 52.3 °F 32% 30.12 in 10.0 mi Calm Calm - N/A   Clear
5:38 PM 83.8 °F - 52.3 °F 34% 30.12 in 10.0 mi West 3.5 mph - N/A   Clear
5:56 PM 82.6 °F 81.8 °F 55.0 °F 39% 30.11 in 10.0 mi Calm Calm - N/A   Clear
6:15 PM 82.9 °F 82.8 °F 59.2 °F 44% 30.11 in 10.0 mi Calm Calm - N/A   Clear
6:35 PM 84.2 °F 82.8 °F 53.6 °F 35% 30.11 in 10.0 mi Calm Calm - N/A   Clear
6:59 PM 81.9 °F 81.7 °F 57.2 °F 43% 30.10 in 10.0 mi SE 3.5 mph - N/A   Clear
7:17 PM 80.8 °F 80.8 °F 56.1 °F 43% 30.10 in 10.0 mi Calm Calm - N/A   Clear
7:36 PM 79.7 °F - 55.8 °F 44% 30.10 in 10.0 mi Calm Calm - N/A   Clear
7:55 PM 77.2 °F - 60.1 °F 55% 30.10 in 10.0 mi Calm Calm - N/A   Clear
8:15 PM 75.7 °F - 60.1 °F 58% 30.09 in 10.0 mi Calm Calm - N/A   Clear
8:39 PM 71.8 °F - 60.4 °F 67% 30.10 in 10.0 mi Calm Calm - N/A   Clear
8:57 PM 72.5 °F - 60.8 °F 67% 30.10 in 10.0 mi Calm Calm - N/A   Clear
9:16 PM 72.0 °F - 60.8 °F 68% 30.10 in 10.0 mi Calm Calm - N/A   Clear
9:35 PM 69.8 °F - 60.8 °F 73% 30.11 in 10.0 mi Calm Calm - N/A   Clear
9:55 PM 69.1 °F - 62.2 °F 79% 30.11 in 10.0 mi Calm Calm - N/A   Scattered Clouds
10:19 PM 71.2 °F - 64.4 °F 79% 30.11 in 10.0 mi Calm Calm - N/A   Scattered Clouds
10:37 PM 69.8 °F - 64.4 °F 83% 30.11 in 10.0 mi Calm Calm - N/A   Scattered Clouds
10:55 PM 69.3 °F - 64.2 °F 84% 30.11 in 10.0 mi Calm Calm - N/A   Clear
11:16 PM 69.3 °F - 63.0 °F 80% 30.11 in 10.0 mi SSE 3.5 mph - N/A   Scattered Clouds
11:35 PM 68.5 °F - 63.3 °F 83% 30.11 in 10.0 mi Calm Calm - N/A   Scattered Clouds
11:59 PM 68.2 °F - 62.6 °F 82% 30.11 in 10.0 mi Calm Calm - N/A   Mostly Cloudy